Location: Bonneuil
(46.1010°N, 2.9693°E)
Time: 03:48:48
(UTC+00:00)

STARLINK-1138 - Pass Details

Date: 09 April 2020
Orbit: 548 x 551 km, 53.0° (Epoch: 02 June)

Event Time Altitude Azimuth Distance (km) Brightness Sun altitude
Rises 20:04:58 0° 300° (WNW) 2,777 9.1 -16.4°
Reaches altitude 10° 20:07:14 10° 303° (WNW) 1,878 7.7 -16.7°
Maximum altitude 20:11:30 66° 26° (NNE) 626 3.8 -17.4°
Enters shadow 20:13:08 36° 97° (E) 922 4.3 -17.6°
